Location: Burzi?i
(45.0869°N, 16.0577°E)
Time: 04:30:28
(UTC+00:00)

CZ-4C R/B - Pass Details

Date: 29 October 2020
Orbit: 624 x 1378 km, 63.4° (Epoch: 01 December)

Event Time Altitude Azimuth Distance (km) Brightness Sun altitude
Rises 18:41:19 0° 323° (NW) 3,762 6.2 -31.1°
Reaches altitude 10° 18:43:50 10° 328° (NNW) 2,913 5.5 -31.5°
Enters shadow 18:49:39 50° 16° (NNE) 1,485 3.3 -32.5°
